Regional Weather Roundup
Issued by NWS Charleston, SC

Current Version | Previous Version | Graphics & Text | Print | Product List | Glossary On
Versions: 1 2 3 4 5 6 7 8 9 10 11 12 13 14 15 16 17 18 19 20 21 22 23 24 25 26 27 28 29 30 31 32 33 34 35 36 37 38 39 40 41 42 43 44 45 46 47 48 49 50
876 ASUS42 KCHS 182327 RWRCHS REGIONAL WEATHER ROUNDUP NATIONAL WEATHER SERVICE CHARLESTON SC 600 PM EST SAT NOV 18 2017 NOTE: "FAIR" INDICATES FEW OR NO CLOUDS BELOW 12,000 FEET WITH NO SIGNIFICANT WEATHER AND/OR OBSTRUCTIONS TO VISIBILITY. NOT ALL STATIONS ARE QUALITY CONTROLLED. USE DATA WITH CAUTION... ESPECIALLY DEWPOINT OBSERVATIONS. SCZ027-030-031-034>040-042>050-190000- ...SOUTHEAST SOUTH CAROLINA... CITY SKY/WX TMP DP RH WIND PRES REMARKS N CHARLESTON PTCLDY 65 57 75 S12 29.86S WATERFRONT PRK NOT AVBL JOHNS ISLAND FAIR 64 59 82 S8 29.86F PINOPOLIS N/A 70 55 60 SW6 29.75F MONCKS CORNER FAIR 66 54 63 SW9 29.84S SUMMERVILLE FAIR 64 55 72 S5 29.85F BEAUFORT MCAS CLEAR 68 59 73 S8 29.87R BEAUFORT ARPT FAIR 64 59 82 S6 29.86S HILTON HEAD IS CLEAR 66 59 77 S8 29.88S WALTERBORO CLEAR 64 55 72 S6 29.86S ALLENDALE FAIR 64 54 68 CALM 29.84S ...SOUTHERN MIDLANDS AND PEE DEE... CITY SKY/WX TMP DP RH WIND PRES REMARKS GEORGETOWN FAIR 63 59 88 S7 29.85F KINGSTREE FAIR 64 54 68 S3 29.82S ORANGEBURG CLEAR 62 51 67 SW6 29.83S BARNWELL N/A 68 54 60 S6 29.84S AIKEN FAIR 61 50 67 S6 29.84F MANNING FAIR 64 59 82 MISG 29.83R COLUMBIA PTCLDY 67 52 58 SW6 29.80F SUMTER PTCLDY 65 52 62 SW8 29.79R FLORENCE MOCLDY 64 56 75 S7 29.81S MYRTLE BEACH PTCLDY 67 57 70 S12 29.84F N MYRTLE BEACH PTCLDY 66 58 75 SW14G23 29.82F $$ GAZ063-065-086>088-099>101-113>116-118-119-134>141-150-190000- ...SOUTHEAST GEORGIA... CITY SKY/WX TMP DP RH WIND PRES REMARKS SAVANNAH ARPT PTCLDY 68 53 58 S6 29.87S HUNTER AAF CLEAR 68 57 67 S7 29.85R FORT STEWART CLEAR 69 52 55 S5 29.85S STATESBORO CLEAR 64 50 60 S3 29.85F SYLVANIA CLEAR 66 55 68 CALM 29.86S CLAXTON FAIR 63 56 78 CALM 29.87S ...CSRA...CENTRAL AND FAR SOUTHEAST GEORGIA... CITY SKY/WX TMP DP RH WIND PRES REMARKS THOMSON CLOUDY 64 51 64 W6 29.86S AUGUSTA-BUSH CLEAR 65 52 62 S7 29.81F AUGUSTA-DANIEL CLEAR 68 52 56 S6 29.83S SWAINSBORO FAIR 66 54 63 N3 29.86S VIDALIA CLEAR 66 54 63 S3 29.86S EASTMAN FAIR 67 44 42 SW3 29.89R HAZLEHURST FAIR 68 44 42 SW5 29.86S ALMA CLEAR 68 54 60 S5 29.87S WAYCROSS CLEAR 66 52 60 SW6 29.89S JESUP FAIR 64 55 72 CALM 29.88S BAXLEY FAIR 63 52 67 S3 29.87S BRUNSWICK CLEAR 68 55 64 S6 29.90S SAINT SIMONS CLEAR 68 61 78 S10 29.89S $$ SCZ027-028-034-036>038-045-046-048>050-GAZ119-141-190000- ...LAKE AND SUPPLEMENTAL COASTAL OBSERVATIONS... STATION/POSITION TIME TEMP WIND PRES WAVE SWELL AIR SEA DIR/SP/G HT/PER HT/PER/DIR (UTC) (F) (DEG/KT/KT) (MB) (FT/S) (FT/S/D) WINYAH BAY 2230 67 210/ 8 1011.0S LAKE MURRAY 2250 68 210/ 8/ 11 1008.5S ACE BASIN NERRS 2245 66 CALM 1011.0S FORT PULASKI NOT AVBL SAPELO ISLAND 2300 66 190/ 9 1012.0 $$ ANZ835-935-AMZ111-154-330-350-352-354-370-450-454-472-190000- ...C-MAN AND BUOY OBSERVATIONS... STATION/POSITION TIME TEMP WIND PRES WAVE SWELL AIR SEA DIR/SP/G HT/PER HT/PER/DIR (UTC) (F) (DEG/KT/KT) (MB) (FT/S) (FT/S/D) BUOY 41004 2310 72 76 230/ 17/ 21 1011.2 BUOY 41008 2250 70 69 170/ 14/ 16 1011.8F 2/12 2/ 90/12 FOLLY BEACH CMAN 2300 64 200/ 9/ 11 1011.9F CAPERS NEARSHORE 2308 63 63 210/ 12/ 16 1010.9F FRIPP NEARSHORE 2308 63 63 210/ 10/ 16 1010.7R STATION/POSITION TIME TEMP WIND PRES WAVE SWELL AIR SEA DIR/SP/G HT/PER HT/PER/DIR (UTC) (F) (DEG/KT/KT) (MB) (FT/S) (FT/S/D) 5E ST. MARYS GA 2300 67 N/A 3/ 7 2/ 90/12 FRYING PAN BUOY 2310 73 71 200/ 21/ 27 1010.3 BUOY 41025 2310 71 69 200/ 23/ 31 1010.8 CAPE LOOKOUT NC 2300 67 190/ 14/ 16 1010.6F BUOY 41002 2250 71 77 160/ 8/ 12 1015.0F 4/ 8 5/360/ 8 BUOY 41010 NOT AVBL ST AUGUSTINE FL 2300 70 70 170/ 9/ 10 1013.2F $$

USA.gov is the U.S. government's official web portal to all federal, state and local government web resources and services.